Location: Kudlacze
(49.7800°N, 20.0200°E)
Time: 15:29:48
(UTC+00:00)

Tiangong - Visible Passes

Search period start: 23 September 2021 00:00
Search period end: 03 October 2021 00:00
Orbit: 382 x 385 km, 41.5° (Epoch: 22 September)

Date Brightness Start Highest point End Pass type
(mag) Time Alt. Az. Time Alt. Az. Time Alt. Az.
28 Sep 3.7 03:39:43 10° SSW 03:41:23 14° SSE 03:43:02 10° SE visible
29 Sep 3.8 02:41:33 10° SSE 02:41:45 10° SSE 02:42:18 10° SSE visible
30 Sep 3.3 03:16:47 13° SSW 03:18:09 16° S 03:20:13 10° SE visible
01 Oct 4.0 02:19:47 11° SE 02:19:47 11° SE 02:20:09 10° SE visible
01 Oct 3.1 03:52:21 10° SW 03:54:38 18° S 03:56:55 10° SE visible
02 Oct 3.1 02:54:59 18° S 02:54:59 18° S 02:57:11 10° SE visible
